TimeEDT,TemperatureF,Dew PointF,Humidity,Sea Level PressureIn,VisibilityMPH,Wind Direction,Wind SpeedMPH,Gust SpeedMPH,PrecipitationIn,Events,Conditions,WindDirDegrees,DateUTC
12:15 AM,57.9,57.0,97,29.69,9.0,SSW,5.8,-,N/A,,Mostly Cloudy,200,2013-05-12 04:15:00
12:51 AM,59.0,57.9,96,29.67,9.0,SW,5.8,-,N/A,,Mostly Cloudy,220,2013-05-12 04:51:00
1:11 AM,59.0,57.9,96,29.66,8.0,SSW,3.5,-,N/A,,Partly Cloudy,210,2013-05-12 05:11:00
1:51 AM,57.9,57.0,97,29.66,6.0,SSW,4.6,-,N/A,,Partly Cloudy,200,2013-05-12 05:51:00
2:29 AM,57.2,55.4,94,29.64,1.5,ESE,3.5,-,N/A,,Scattered Clouds,110,2013-05-12 06:29:00
2:32 AM,55.9,55.0,97,29.64,0.8,SE,5.8,-,N/A,,Mist,130,2013-05-12 06:32:00
2:42 AM,55.9,55.0,97,29.65,0.2,South,9.2,-,N/A,Fog,Fog,170,2013-05-12 06:42:00
2:51 AM,55.0,55.0,100,29.65,0.2,South,4.6,-,N/A,Fog,Fog,180,2013-05-12 06:51:00
2:58 AM,55.9,55.0,97,29.65,0.8,South,4.6,-,N/A,,Mist,190,2013-05-12 06:58:00
3:03 AM,55.9,55.0,97,29.65,1.5,South,4.6,-,N/A,,Overcast,180,2013-05-12 07:03:00
3:13 AM,55.0,55.0,100,29.64,2.5,South,4.6,-,N/A,,Overcast,170,2013-05-12 07:13:00
3:20 AM,55.9,55.0,97,29.64,3.0,South,3.5,-,N/A,,Overcast,170,2013-05-12 07:20:00
3:51 AM,55.9,55.9,100,29.64,3.0,South,5.8,-,N/A,,Overcast,180,2013-05-12 07:51:00
4:10 AM,57.0,55.9,96,29.65,2.0,South,6.9,-,N/A,,Overcast,190,2013-05-12 08:10:00
4:16 AM,57.0,55.9,96,29.64,1.8,South,6.9,-,N/A,,Overcast,190,2013-05-12 08:16:00
4:32 AM,57.0,57.0,100,29.63,2.5,SSW,6.9,-,N/A,,Overcast,200,2013-05-12 08:32:00
4:39 AM,57.0,57.0,100,29.63,2.5,South,6.9,-,N/A,,Overcast,190,2013-05-12 08:39:00
4:49 AM,57.2,57.2,100,29.63,2.0,SSW,4.6,-,N/A,,Overcast,200,2013-05-12 08:49:00
4:51 AM,57.0,57.0,100,29.63,2.0,South,4.6,-,N/A,,Overcast,190,2013-05-12 08:51:00
5:08 AM,57.0,57.0,100,29.63,3.0,Calm,Calm,-,N/A,,Overcast,0,2013-05-12 09:08:00
5:32 AM,57.0,55.9,96,29.64,1.8,SSW,5.8,-,N/A,,Overcast,210,2013-05-12 09:32:00
5:35 AM,57.0,55.9,96,29.64,1.0,SW,3.5,-,N/A,,Overcast,220,2013-05-12 09:35:00
5:43 AM,57.0,55.9,96,29.64,0.5,SSW,5.8,-,N/A,Fog,Fog,210,2013-05-12 09:43:00
5:51 AM,57.0,57.0,100,29.63,0.2,SSW,3.5,-,N/A,Fog,Fog,200,2013-05-12 09:51:00
6:02 AM,57.0,57.0,100,29.63,0.2,South,3.5,-,N/A,Fog,Fog,190,2013-05-12 10:02:00
6:39 AM,57.0,57.0,100,29.64,0.5,South,4.6,-,N/A,Fog,Fog,180,2013-05-12 10:39:00
6:43 AM,57.0,57.0,100,29.64,1.0,South,3.5,-,N/A,,Overcast,180,2013-05-12 10:43:00
6:47 AM,57.2,57.2,100,29.64,1.5,South,4.6,-,N/A,,Overcast,170,2013-05-12 10:47:00
6:51 AM,57.9,57.0,97,29.64,2.0,South,5.8,-,N/A,,Overcast,180,2013-05-12 10:51:00
7:51 AM,57.0,57.0,100,29.62,4.0,South,5.8,-,0.05,Rain,Light Rain,180,2013-05-12 11:51:00
8:10 AM,57.0,57.0,100,29.61,2.0,South,5.8,-,0.00,,Overcast,180,2013-05-12 12:10:00
8:31 AM,57.9,57.0,97,29.62,1.5,South,5.8,-,0.00,Rain,Light Rain,180,2013-05-12 12:31:00
8:51 AM,57.9,57.0,97,29.62,1.5,South,5.8,-,0.00,,Overcast,180,2013-05-12 12:51:00
9:00 AM,57.9,57.0,97,29.61,2.0,South,8.1,-,N/A,,Overcast,180,2013-05-12 13:00:00
9:51 AM,57.9,57.9,100,29.59,6.0,SSW,5.8,-,0.03,Rain,Light Rain,200,2013-05-12 13:51:00
10:51 AM,59.0,57.9,96,29.59,4.0,South,3.5,-,0.00,Rain,Light Rain,180,2013-05-12 14:51:00
11:13 AM,60.1,59.0,96,29.57,5.0,SSE,3.5,-,0.01,,Overcast,160,2013-05-12 15:13:00
11:51 AM,63.0,57.9,84,29.57,10.0,West,6.9,-,0.01,,Overcast,270,2013-05-12 15:51:00
12:51 PM,62.1,52.0,70,29.56,10.0,West,10.4,-,N/A,,Overcast,260,2013-05-12 16:51:00
1:51 PM,64.0,52.0,65,29.56,10.0,SW,8.1,-,N/A,,Overcast,230,2013-05-12 17:51:00
2:51 PM,66.9,48.0,51,29.55,10.0,West,11.5,16.1,N/A,,Mostly Cloudy,260,2013-05-12 18:51:00
3:51 PM,70.0,48.9,47,29.54,10.0,WSW,9.2,-,N/A,,Mostly Cloudy,240,2013-05-12 19:51:00
4:51 PM,66.0,50.0,56,29.55,10.0,SSW,3.5,-,N/A,,Overcast,210,2013-05-12 20:51:00
5:51 PM,68.0,44.1,42,29.55,10.0,West,12.7,-,N/A,,Partly Cloudy,280,2013-05-12 21:51:00
6:51 PM,64.0,44.1,48,29.58,10.0,West,12.7,-,N/A,,Scattered Clouds,270,2013-05-12 22:51:00
7:51 PM,59.0,37.0,44,29.63,10.0,West,16.1,-,N/A,,Mostly Cloudy,270,2013-05-12 23:51:00
8:51 PM,55.0,33.1,43,29.66,10.0,West,11.5,-,N/A,,Mostly Cloudy,280,2013-05-13 00:51:00
9:51 PM,53.1,34.0,48,29.69,10.0,West,9.2,-,N/A,,Overcast,270,2013-05-13 01:51:00
10:51 PM,51.1,34.0,52,29.72,10.0,WSW,6.9,-,N/A,,Scattered Clouds,250,2013-05-13 02:51:00
11:51 PM,48.9,32.0,52,29.75,10.0,West,10.4,-,N/A,,Clear,270,2013-05-13 03:51:00